User: anonymous   Login
Location: ?
(35.4214°N, 139.3011°E)
Time: 17:07:43
(UTC+00:00)
Language:

SL-16 R/B - Orbit

View from above orbital plane
View from above orbital plane
View from above satellite
View from above satellite

Ground track
Ground track

The orbit data is extracted from the following two-line orbital elements,

1 28353U 04021B   20270.77629593 -.00000348  00000-0 -15710-3 0  9991
2 28353  70.9976  86.8218 0005660 206.8422 153.2408 14.14234753841476
Epoch (UTC): 26 September 2020 18:37:51
Eccentricity: 0.0005660
inclination: 70.9976°
perigee height: 841 km
apogee height: 849 km
right ascension of ascending node: 86.8218°
argument of perigee: 206.8422°
revolutions per day: 14.14234753
mean anomaly at epoch: 153.2408°
orbit number at epoch: 84147

The dashed part of the orbit path shows where the satellite is in the earth's shadow,  

DLR